logo
Games released by Sekai Project
# Game Release date
Price
Score rank
(Userscore / Metascore)
Owners
Playtime (Median)
1 CLANNAD Nov 23, 2015 $44.99N/A (N/A/83%)100,000 .. 200,00000:00 (00:00)
2 Root Double -Before Crime * After Days- Xtend Edition Apr 27, 2016 $34.99N/A (N/A/75%)20,000 .. 50,00000:00 (00:00)
3 The Waters Above: Prelude Jun 27, 2018 FreeN/A (N/A)20,000 .. 50,00000:00 (00:00)
4 Rising Angels: Reborn Oct 31, 2013 FreeN/A (N/A)100,000 .. 200,00000:00 (00:00)
5 Eternal Hour: Golden Hour Nov 27, 2017 FreeN/A (N/A)100,000 .. 200,00000:00 (00:00)
6 NEKOPALIVE May 31, 2016 N/AN/A (N/A)200,000 .. 500,00000:00 (00:00)
7 Sunrider: Mask of Arcadius Jul 2, 2014 FreeN/A (N/A)500,000 .. 1,000,00000:00 (00:00)
8 Narcissu 1st & 2nd May 15, 2007 FreeN/A (N/A)200,000 .. 500,00000:00 (00:00)
9 A More Beautiful World - A Kinetic Visual Novel Sep 28, 2018 N/AN/A (N/A)0 .. 20,00000:00 (00:00)
10 One Last Crane Jul 4, 2022 $14.99N/A (N/A)0 .. 20,00000:00 (00:00)
11 Hana's Campus Life! Mar 31, 2023 $14.99N/A (N/A)0 .. 20,00000:00 (00:00)
12 Miko no Kanata: Curious Tales from Oguni Shrine -Cycles- Aug 5, 2022 $12.99N/A (N/A)0 .. 20,00000:00 (00:00)
13 Order of Ataxia: Initial Effects Aug 17, 2017 $9.99N/A (N/A)0 .. 20,00000:00 (00:00)
14 Tactical Chronicle Apr 18, 2018 $4.99N/A (N/A)0 .. 20,00000:00 (00:00)
15 Innocent Forest 2: The Bed in the Sky Oct 5, 2018 $4.99N/A (N/A)0 .. 20,00000:00 (00:00)
16 LOOP LOOP ROOM Jul 31, 2023 $5.99N/A (N/A)0 .. 20,00000:00 (00:00)
17 Tobari 2: Nightmare Jul 9, 2021 $6.99N/A (N/A)0 .. 20,00000:00 (00:00)
18 Last Stanza Nov 9, 2018 $7.99N/A (N/A)0 .. 20,00000:00 (00:00)
19 Living in the Ending World Sep 22, 2020 N/AN/A (N/A)0 .. 20,00000:00 (00:00)
20 Exogenesis ~Perils of Rebirth~ Apr 19, 2019 $29.99N/A (N/A)0 .. 20,00000:00 (00:00)
21 The Bell Chimes for Gold Apr 6, 2018 $9.99N/A (N/A)0 .. 20,00000:00 (00:00)
22 Marshmallow Imouto Succubus Sep 22, 2023 $19.99N/A (N/A)0 .. 20,00000:00 (00:00)
23 The Emerald Tablet Dec 16, 2019 $19.99N/A (N/A)20,000 .. 50,00000:00 (00:00)
24 Love Duction! The Guide for Galactic Lovers Oct 15, 2021 $12.99N/A (N/A)0 .. 20,00000:00 (00:00)
25 ATOM GRRRL!! Mar 1, 2016 $9.99N/A (N/A)0 .. 20,00000:00 (00:00)
26 CyberRebeat -The Fifth Domain of Warfare- Aug 24, 2018 $9.99N/A (N/A)0 .. 20,00000:00 (00:00)
27 Undead Darlings ~no cure for love~ Sep 28, 2020 $29.99N/A (N/A)0 .. 20,00000:00 (00:00)
28 Revival Quest Mar 24, 2023 $12.99N/A (N/A)0 .. 20,00000:00 (00:00)
29 AL・FINE Nov 11, 2016 $14.99N/A (N/A)0 .. 20,00000:00 (00:00)
30 Girls in Glasses Apr 9, 2021 $9.99N/A (N/A)0 .. 20,00000:00 (00:00)
31 Alisa Quest Nov 24, 2020 $12.99N/A (N/A)0 .. 20,00000:00 (00:00)
32 Tobari 2: Dream Ocean Jul 17, 2020 $12.99N/A (N/A)0 .. 20,00000:00 (00:00)
33 Princess Quest Mar 8, 2024 $13.99N/A (N/A)0 .. 20,00000:00 (00:00)
34 A Butterfly in the District of Dreams May 12, 2017 $9.99N/A (N/A)0 .. 20,00000:00 (00:00)
35 Rising Angels: Hope Mar 18, 2016 $14.99N/A (N/A)0 .. 20,00000:00 (00:00)
36 MAGICAL×SPIRAL Dec 20, 2016 $14.99N/A (N/A)0 .. 20,00000:00 (00:00)
37 Love, Guitars, and the Nashville Skyline Nov 22, 2016 $9.99N/A (N/A)0 .. 20,00000:00 (00:00)
38 A Clockwork Ley-Line: Flowers Falling in the Morning Mist Nov 11, 2022 $24.99N/A (N/A)0 .. 20,00000:00 (00:00)
39 A Clockwork Ley-Line: Daybreak of Remnants Shadow Mar 18, 2022 $24.99N/A (N/A)0 .. 20,00000:00 (00:00)
40 The Oath of The Dark Magic Queen Nov 5, 2021 $4.99N/A (N/A)0 .. 20,00000:00 (00:00)
41 Reverse x Reverse Dec 10, 2015 $9.99N/A (N/A)0 .. 20,00000:00 (00:00)
42 Childhood Friends Apr 16, 2021 $19.99N/A (N/A)0 .. 20,00000:00 (00:00)
43 Animal Trail ☆ Girlish Square 2 Dec 18, 2023 $14.99N/A (N/A)0 .. 20,00000:00 (00:00)
44 Animal Trail ☆ Girlish Square LOVE+PLUS Nov 17, 2023 $4.99N/A (N/A)0 .. 20,00000:00 (00:00)
45 Trapper Knight, Sharpshooter Princess Apr 10, 2017 $14.99N/A (N/A)20,000 .. 50,00000:00 (00:00)
46 Innocent Forest: The Bird of Light Oct 5, 2018 $4.99N/A (N/A)0 .. 20,00000:00 (00:00)
47 VOID Oct 31, 2017 $10.99N/A (N/A)0 .. 20,00000:00 (00:00)
48 Lys and Ruka's Magical Bag Aug 5, 2022 $14.99N/A (N/A)0 .. 20,00000:00 (00:00)
49 Hoshizora no Memoria -Eternal Heart- HD Nov 18, 2022 $19.99N/A (N/A)0 .. 20,00000:00 (00:00)
50 Walkerman May 22, 2017 $6.99N/A (N/A)0 .. 20,00000:00 (00:00)
51 Machina of the Planet Tree -Unity Unions- May 15, 2020 $18.99N/A (N/A)0 .. 20,00000:00 (00:00)
52 Getting Freaky With Fujiki Apr 7, 2023 $9.99N/A (N/A)0 .. 20,00000:00 (00:00)
53 Real Life Plus Ver. Kaname Komatsuzaki May 8, 2020 $12.99N/A (N/A)0 .. 20,00000:00 (00:00)
54 My Academy's Special Place Dec 15, 2023 $14.99N/A (N/A)0 .. 20,00000:00 (00:00)
55 Animal Trail ☆ Girlish Square Aug 12, 2022 $14.99N/A (N/A)0 .. 20,00000:00 (00:00)
56 Creature Romances: For the Ladies Oct 31, 2020 $2.99N/A (N/A)0 .. 20,00000:00 (00:00)
57 The Orchard of Stray Sheep Jun 20, 2016 $9.99N/A (N/A)0 .. 20,00000:00 (00:00)
58 QUALIA ~The Path of Promise~ Feb 3, 2023 $19.99N/A (N/A)0 .. 20,00000:00 (00:00)
59 Resette's Prescription ~Book of memory, Swaying scale~ May 30, 2016 $12.99N/A (N/A)0 .. 20,00000:00 (00:00)
60 Cherry Tree High Girls' Fight Jun 13, 2016 $12.99N/A (N/A)0 .. 20,00000:00 (00:00)
61 Raspberry Cube Nov 4, 2022 $29.99N/A (N/A)0 .. 20,00000:00 (00:00)
62 Re;Lord 1 ~The witch of Herfort and stuffed animals~ Mar 9, 2018 $9.99N/A (N/A)0 .. 20,00000:00 (00:00)
63 Slobbish Dragon Princess LOVE + PLUS Jun 22, 2021 $4.99N/A (N/A)0 .. 20,00000:00 (00:00)
64 Ninja Girl and the Mysterious Army of Urban Legend Monsters! ~Hunt of the Headless Horseman~ Jun 24, 2019 $15.99N/A (N/A)0 .. 20,00000:00 (00:00)
65 My Little Sister's Special Place Jun 26, 2023 $14.99N/A (N/A)0 .. 20,00000:00 (00:00)
66 My Little Kitties Jun 21, 2016 $9.99N/A (N/A)0 .. 20,00000:00 (00:00)
67 A Clockwork Ley-Line: The Borderline of Dusk Dec 18, 2017 $19.99N/A (N/A)0 .. 20,00000:00 (00:00)
68 The Falconers: Moonlight Apr 18, 2017 $9.99N/A (N/A)0 .. 20,00000:00 (00:00)
69 Tobari and the Night of the Curious Moon May 26, 2015 $9.99N/A (N/A)0 .. 20,00000:00 (00:00)
70 Serment - Contract with a Devil Feb 1, 2019 $14.99N/A (N/A)0 .. 20,00000:00 (00:00)
71 PacaPlus Mar 30, 2017 $9.99N/A (N/A)0 .. 20,00000:00 (00:00)
72 Slobbish Dragon Princess 3 Mar 14, 2023 $14.99N/A (N/A)0 .. 20,00000:00 (00:00)
73 Island Diary Jul 2, 2021 $16.99N/A (N/A)0 .. 20,00000:00 (00:00)
74 Winter Polaris Dec 12, 2019 $14.99N/A (N/A)0 .. 20,00000:00 (00:00)
75 Shining Song Starnova: Idol Empire Feb 20, 2020 $14.99N/A (N/A)0 .. 20,00000:00 (00:00)
76 The Witch's Love Diary Jul 26, 2019 $29.99N/A (N/A)0 .. 20,00000:00 (00:00)
77 2236 A.D. May 11, 2018 $14.99N/A (N/A)0 .. 20,00000:00 (00:00)
78 Companion Mar 31, 2017 $9.99N/A (N/A)0 .. 20,00000:00 (00:00)
79 Nie No Hakoniwa - Dollhouse of Offerings Feb 15, 2024 $29.99N/A (N/A)0 .. 20,00000:00 (00:00)
80 I Walk Among Zombies Vol. 0 Dec 15, 2020 $8.99N/A (N/A)0 .. 20,00000:00 (00:00)
81 Slobbish Dragon Princess 2 Dec 17, 2021 $14.99N/A (N/A)0 .. 20,00000:00 (00:00)
82 My Girlfriend’s Special Place Mar 13, 2023 $14.99N/A (N/A)0 .. 20,00000:00 (00:00)
83 NEKO-NIN exHeart 2 Love +PLUS Apr 26, 2019 $4.99N/A (N/A)0 .. 20,00000:00 (00:00)
84 Love's Sweet Garnish 2 Oct 2, 2020 $16.99N/A (N/A)0 .. 20,00000:00 (00:00)
85 Ne no Kami - The Two Princess Knights of Kyoto Part 2 Sep 7, 2017 $9.99N/A (N/A)20,000 .. 50,00000:00 (00:00)
86 RaidersSphere4th Dec 31, 2013 $19.99N/A (N/A)20,000 .. 50,00000:00 (00:00)
87 ChronoClock Feb 28, 2017 $29.99N/A (N/A)0 .. 20,00000:00 (00:00)
88 Yohjo Simulator Nov 17, 2015 $4.99N/A (N/A)0 .. 20,00000:00 (00:00)
89 A Magical High School Girl / 魔法の女子高生 Nov 22, 2016 $9.99N/A (N/A)0 .. 20,00000:00 (00:00)
90 Watamari - A Match Made in Heaven Part1 Sep 23, 2022 $18.99N/A (N/A)0 .. 20,00000:00 (00:00)
91 Ne no Kami: The Two Princess Knights of Kyoto Oct 26, 2016 $9.99N/A (N/A)0 .. 20,00000:00 (00:00)
92 Machina of the Planet Tree -Planet Ruler- Jul 28, 2015 $12.99N/A (N/A)20,000 .. 50,00000:00 (00:00)
93 Nanairo Reincarnation Sep 27, 2019 $29.99N/A (N/A)20,000 .. 50,00000:00 (00:00)
94 Amairo Chocolate 2 Jun 28, 2023 $29.99N/A (N/A)0 .. 20,00000:00 (00:00)
95 NEKO-NIN exHeart +PLUS Saiha Nov 17, 2017 $1.99N/A (N/A)20,000 .. 50,00000:00 (00:00)
96 Slobbish Dragon Princess Jan 29, 2021 $14.99N/A (N/A)0 .. 20,00000:00 (00:00)
97 Sunrider 4: The Captain's Return Feb 8, 2023 $29.99N/A (N/A)0 .. 20,00000:00 (00:00)
98 NEKO-NIN exHeart 3 Oct 18, 2019 $9.99N/A (N/A)0 .. 20,00000:00 (00:00)
99 Sierra Ops - Space Strategy Visual Novel Jan 16, 2020 $14.99N/A (N/A)200,000 .. 500,00000:00 (00:00)
100 WORLD END ECONOMiCA episode.03 Dec 21, 2016 $12.99N/A (N/A)20,000 .. 50,00000:00 (00:00)
101 I Walk Among Zombies Vol. 3 Dec 15, 2020 $14.99N/A (N/A)0 .. 20,00000:00 (00:00)
102 Alice Escaped! Jan 27, 2023 $19.99N/A (N/A)0 .. 20,00000:00 (00:00)
103 WORLD END ECONOMiCA episode.02 Jul 21, 2015 $12.99N/A (N/A)20,000 .. 50,00000:00 (00:00)
104 UsoNatsu ~The Summer Romance Bloomed From A Lie~ Nov 3, 2023 $24.99N/A (N/A)0 .. 20,00000:00 (00:00)
105 NEKO-NIN exHeart +PLUS Nachi Nov 2, 2017 $1.99N/A (N/A)20,000 .. 50,00000:00 (00:00)
106 Just Deserts Jul 25, 2016 $9.99N/A (N/A)20,000 .. 50,00000:00 (00:00)
107 Japanese School Life Nov 22, 2016 $9.99N/A (N/A)50,000 .. 100,00000:00 (00:00)
108 Saku Saku: Love Blooms with the Cherry Blossoms Oct 2, 2017 $19.99N/A (N/A)50,000 .. 100,00000:00 (00:00)
109 NEKO-MIMI SWEET HOUSEMATES Vol. 1 Apr 8, 2022 $15.99N/A (N/A)0 .. 20,00000:00 (00:00)
110 Hoshizora no Memoria -Wish upon a Shooting Star- HD Dec 18, 2017 $19.99N/A (N/A)20,000 .. 50,00000:00 (00:00)
111 NEKO-NIN exHeart 2 Apr 27, 2018 $9.99N/A (N/A)0 .. 20,00000:00 (00:00)
112 TOKYO CHRONOS Mar 19, 2019 $29.99N/A (N/A)20,000 .. 50,00000:00 (00:00)
113 Memory's Dogma CODE:01 Nov 4, 2016 $14.99N/A (N/A)20,000 .. 50,00000:00 (00:00)
114 CLANNAD Side Stories Jun 2, 2016 $19.99N/A (N/A)20,000 .. 50,00000:00 (00:00)
115 How to Raise a Wolf Girl Oct 11, 2019 $19.99N/A (N/A)0 .. 20,00000:00 (00:00)
116 Shining Song Starnova Sep 13, 2018 $29.99N/A (N/A)50,000 .. 100,00000:00 (00:00)
117 WAGAMAMA HIGH SPEC Jul 26, 2017 $39.99N/A (N/A)0 .. 20,00000:00 (00:00)
118 Maitetsu Jun 29, 2018 $14.99N/A (N/A)20,000 .. 50,00000:00 (00:00)
119 Project LUX Feb 2, 2018 $24.99N/A (N/A)20,000 .. 50,00000:00 (00:00)
120 Ame no Marginal -Rain Marginal- Jul 7, 2015 $12.99N/A (N/A)50,000 .. 100,00000:00 (00:00)
121 Rewrite+ Dec 17, 2021 $49.99N/A (N/A)0 .. 20,00000:00 (00:00)
122 Creature Romances: Kokonoe Kokoro Mar 2, 2018 $2.99N/A (N/A)20,000 .. 50,00000:00 (00:00)
123 9-nine-:NewEpisode Mar 18, 2022 $9.99N/A (N/A)0 .. 20,00000:00 (00:00)
124 Mahou Arms Apr 28, 2020 $29.99N/A (N/A)0 .. 20,00000:00 (00:00)
125 Sound of Drop - fall into poison - Oct 30, 2015 $12.99N/A (N/A)50,000 .. 100,00000:00 (00:00)
126 9-nine-:Episode 3 Aug 31, 2020 $19.99N/A (N/A)20,000 .. 50,00000:00 (00:00)
127 Narcissu 10th Anniversary Anthology Project Jan 27, 2016 $2.99N/A (N/A)20,000 .. 50,00000:00 (00:00)
128 KARAKARA2 Nov 10, 2017 $9.99N/A (N/A)0 .. 20,00000:00 (00:00)
129 Tropical Liquor Mar 9, 2018 $9.99N/A (N/A)50,000 .. 100,00000:00 (00:00)
130 WORLD END ECONOMiCA episode.01 Jun 17, 2014 $12.99N/A (N/A)50,000 .. 100,00000:00 (00:00)
131 G-senjou no Maou - The Devil on G-String Nov 5, 2015 $19.99N/A (N/A)20,000 .. 50,00000:00 (00:00)
132 Amairo Chocolate Mar 19, 2020 $24.99N/A (N/A)0 .. 20,00000:00 (00:00)
133 Sunrider: Liberation Day - Captain's Edition Mar 4, 2016 $24.99N/A (N/A)50,000 .. 100,00000:00 (00:00)
134 Love's Sweet Garnish Sep 7, 2018 $12.99N/A (N/A)20,000 .. 50,00000:00 (00:00)
135 Fatal Twelve Mar 30, 2018 $19.99N/A (N/A)20,000 .. 50,00000:00 (00:00)
136 9-nine-:Episode 4 Mar 19, 2021 $19.99N/A (N/A)20,000 .. 50,00000:00 (00:00)
137 NEKO-NIN exHeart Apr 21, 2017 $9.99N/A (N/A)20,000 .. 50,00000:00 (00:00)
138 Hamidashi Creative Sep 30, 2022 $29.99N/A (N/A)0 .. 20,00000:00 (00:00)
139 Sunrider Academy Apr 15, 2015 $9.99N/A (N/A)50,000 .. 100,00000:00 (00:00)
140 9-nine-:Episode 2 Aug 16, 2019 $19.99N/A (N/A)20,000 .. 50,00000:00 (00:00)
141 9-nine-:Episode 1 Jan 31, 2019 $19.99N/A (N/A)20,000 .. 50,00000:00 (00:00)
142 Baldr Sky Dec 20, 2019 $49.99N/A (N/A)20,000 .. 50,00000:00 (00:00)
143 Love at First Sight May 18, 2015 $9.99N/A (N/A)20,000 .. 50,00000:00 (00:00)
144 The Ditzy Demons Are in Love With Me Oct 26, 2018 $24.99N/A (N/A)20,000 .. 50,00000:00 (00:00)
145 A Light in the Dark Jun 15, 2018 $14.99N/A (N/A)50,000 .. 100,00000:00 (00:00)
146 KARAKARA Jun 27, 2016 $9.99N/A (N/A)50,000 .. 100,00000:00 (00:00)
147 planetarian ~the reverie of a little planet~ Nov 29, 2004 N/AN/A (N/A)50,000 .. 100,00000:00 (00:00)
148 M.A.S.S. Builder Sep 13, 2019 $24.99N/A (N/A)100,000 .. 200,00000:00 (00:00)
149 NEKOPARA Extra Jul 26, 2018 $4.99N/A (N/A)200,000 .. 500,00000:00 (00:00)
150 NEKOPARA Vol. 4 Nov 26, 2020 $9.99N/A (N/A)200,000 .. 500,00000:00 (00:00)
151 NEKOPARA Vol. 3 May 25, 2017 $9.99N/A (N/A)500,000 .. 1,000,00000:00 (00:00)
152 NEKOPARA Vol. 2 Feb 19, 2016 $9.99N/A (N/A)500,000 .. 1,000,00000:00 (00:00)
153 NEKOPARA Vol. 0 Aug 17, 2015 $2.99N/A (N/A)500,000 .. 1,000,00000:00 (00:00)
154 NEKOPARA Vol. 1 Dec 29, 2014 $9.99N/A (N/A)500,000 .. 1,000,00000:00 (00:00)
Overview

Sekai Project

Games by this company: 154
Average userscore: N/A%
Average metascore: 79%
Average playtime: 00:00
Total copies owned: 7,613,000
Average price: $15.85
Help

Owners: Estimated number of people owning this game. The number might be way too small for new releases and sometimes way too big for games that had free weekend event recently. Read more on About page.

Playtime: Average hours played in total per person that have actually launched this game since March 2009. This time is calculated for the whole lifetime, not for the particular year.

Average score: Average users and metacritic score for all games with this score assigned.

Average playtime: Average lifetime playtime for all games where this data is available.

Games by this company: Self-explaining - number of games released by this company on Steam. Both developed and published. Only inculdes games with sales data available.

Total copies owned: Refers to total copies of games developed or published by this company acquired by users for the lifetime. Includes copies sold, downloaded for free and given out.

This number might be too small for recently released games or too big for games that had a free weekend in the last couple of months.

Graphs

Access restricted.

This feature is only available to users with special access rights. Sorry.

If you want to proceed, you need to register or log in first and then back Steam Spy on Patreon. Look for Indie or Pro pledge.

Don't forget to use the same email as on Steam Spy!

If you've recently backed Steam Spy on Patreon, please note, that it might take around 15 minutes for your access rights to sync. In most cases you'll need to re-login on Steam Spy too.